Time,TemperatureF,DewpointF,PressureIn,WindDirection,WindDirectionDegrees,WindSpeedMPH,WindSpeedGustMPH,Humidity,HourlyPrecipIn,Conditions,Clouds,dailyrainin,SoftwareType,DateUTC
2013-01-22 00:02:00,41.0,27.0,30.32,ESE,105,0.0,2.0,56,0.00,,,0.00,,2013-01-22 06:02:00,
2013-01-22 00:12:00,41.0,27.0,30.32,ESE,105,0.0,2.0,56,0.00,,,0.00,,2013-01-22 06:12:00,
2013-01-22 00:22:00,40.0,26.0,30.32,East,81,0.0,0.0,56,0.00,,,0.00,,2013-01-22 06:22:00,
2013-01-22 00:32:00,40.0,26.0,30.32,East,82,0.0,0.0,58,0.00,,,0.00,,2013-01-22 06:32:00,
2013-01-22 00:42:00,40.0,26.0,30.32,East,82,0.0,0.0,58,0.00,,,0.00,,2013-01-22 06:42:00,
2013-01-22 00:52:00,39.0,26.0,30.31,East,81,0.0,0.0,60,0.00,,,0.00,,2013-01-22 06:52:00,
2013-01-22 01:02:00,39.0,25.0,30.31,NNE,25,0.0,1.0,58,0.00,,,0.00,,2013-01-22 07:02:00,
2013-01-22 01:12:00,39.0,25.0,30.31,NNE,25,0.0,1.0,58,0.00,,,0.00,,2013-01-22 07:12:00,
2013-01-22 01:22:00,39.0,25.0,30.31,NE,42,0.0,1.0,58,0.00,,,0.00,,2013-01-22 07:22:00,
2013-01-22 01:32:00,39.0,25.0,30.31,NNW,347,0.0,2.0,57,0.00,,,0.00,,2013-01-22 07:32:00,
2013-01-22 01:42:00,39.0,25.0,30.31,NNW,347,0.0,2.0,57,0.00,,,0.00,,2013-01-22 07:42:00,
2013-01-22 01:52:00,39.0,26.0,30.31,NE,39,0.0,1.0,59,0.00,,,0.00,,2013-01-22 07:52:00,
2013-01-22 02:02:00,38.0,25.0,30.31,ENE,65,0.0,1.0,59,0.00,,,0.00,,2013-01-22 08:02:00,
2013-01-22 02:12:00,38.0,25.0,30.31,ENE,65,0.0,1.0,59,0.00,,,0.00,,2013-01-22 08:12:00,
2013-01-22 02:22:00,38.0,25.0,30.30,East,79,0.0,1.0,59,0.00,,,0.00,,2013-01-22 08:22:00,
2013-01-22 02:32:00,38.0,25.0,30.31,East,82,0.0,3.0,59,0.00,,,0.00,,2013-01-22 08:32:00,
2013-01-22 02:42:00,38.0,25.0,30.31,East,82,0.0,3.0,59,0.00,,,0.00,,2013-01-22 08:42:00,
2013-01-22 02:52:00,38.0,25.0,30.32,NW,319,0.0,2.0,60,0.00,,,0.00,,2013-01-22 08:52:00,
2013-01-22 03:02:00,38.0,26.0,30.32,NW,321,0.0,0.0,61,0.00,,,0.00,,2013-01-22 09:02:00,
2013-01-22 03:12:00,38.0,26.0,30.32,NW,321,0.0,0.0,61,0.00,,,0.00,,2013-01-22 09:12:00,
2013-01-22 03:22:00,37.0,26.0,30.32,NNW,327,0.0,0.0,63,0.00,,,0.00,,2013-01-22 09:22:00,
2013-01-22 03:32:00,36.0,25.0,30.32,NNW,327,0.0,0.0,65,0.00,,,0.00,,2013-01-22 09:32:00,
2013-01-22 03:42:00,36.0,25.0,30.32,NNW,327,0.0,0.0,65,0.00,,,0.00,,2013-01-22 09:42:00,
2013-01-22 03:52:00,35.0,26.0,30.32,NNW,327,0.0,0.0,69,0.00,,,0.00,,2013-01-22 09:52:00,
2013-01-22 04:02:00,35.0,26.0,30.33,NNW,335,0.0,1.0,70,0.00,,,0.00,,2013-01-22 10:02:00,
2013-01-22 04:12:00,35.0,26.0,30.33,NNW,335,0.0,1.0,70,0.00,,,0.00,,2013-01-22 10:12:00,
2013-01-22 04:22:00,35.0,26.0,30.32,NNW,336,0.0,1.0,69,0.00,,,0.00,,2013-01-22 10:22:00,
2013-01-22 04:32:00,35.0,26.0,30.33,NW,314,0.0,0.0,68,0.00,,,0.00,,2013-01-22 10:32:00,
2013-01-22 04:42:00,35.0,26.0,30.33,NW,314,0.0,0.0,68,0.00,,,0.00,,2013-01-22 10:42:00,
2013-01-22 04:52:00,36.0,26.0,30.33,NW,309,0.0,0.0,68,0.00,,,0.00,,2013-01-22 10:52:00,
2013-01-22 05:02:00,36.0,27.0,30.33,NW,319,0.0,0.0,69,0.00,,,0.00,,2013-01-22 11:02:00,
2013-01-22 05:12:00,36.0,27.0,30.33,NW,319,0.0,0.0,69,0.00,,,0.00,,2013-01-22 11:12:00,
2013-01-22 05:22:00,36.0,26.0,30.33,NW,319,0.0,0.0,68,0.00,,,0.00,,2013-01-22 11:22:00,
2013-01-22 05:33:00,36.0,27.0,30.34,NW,319,0.0,0.0,69,0.00,,,0.00,,2013-01-22 11:33:00,
2013-01-22 05:42:00,36.0,27.0,30.34,NW,319,0.0,0.0,69,0.00,,,0.00,,2013-01-22 11:42:00,
2013-01-22 05:53:00,36.0,27.0,30.35,WNW,289,0.0,0.0,69,0.00,,,0.00,,2013-01-22 11:53:00,
2013-01-22 06:03:00,37.0,27.0,30.35,NW,319,0.0,0.0,67,0.00,,,0.00,,2013-01-22 12:03:00,
2013-01-22 06:12:00,37.0,27.0,30.35,NW,319,0.0,0.0,67,0.00,,,0.00,,2013-01-22 12:12:00,
2013-01-22 06:23:00,37.0,26.0,30.35,WNW,283,0.0,0.0,65,0.00,,,0.00,,2013-01-22 12:23:00,
2013-01-22 06:33:00,37.0,26.0,30.35,WNW,283,0.0,0.0,65,0.00,,,0.00,,2013-01-22 12:33:00,
2013-01-22 06:43:00,37.0,26.0,30.35,NNE,30,0.0,0.0,65,0.00,,,0.00,,2013-01-22 12:43:00,
2013-01-22 06:52:00,37.0,27.0,30.35,NNE,30,0.0,1.0,66,0.00,,,0.00,,2013-01-22 12:52:00,
2013-01-22 07:03:00,37.0,27.0,30.36,NNE,30,0.0,0.0,66,0.00,,,0.00,,2013-01-22 13:03:00,
2013-01-22 07:13:00,37.0,27.0,30.36,NNE,30,0.0,0.0,66,0.00,,,0.00,,2013-01-22 13:13:00,
2013-01-22 07:23:00,37.0,27.0,30.36,NE,46,0.0,0.0,67,0.00,,,0.00,,2013-01-22 13:23:00,
2013-01-22 07:33:00,37.0,27.0,30.37,NE,53,0.0,0.0,67,0.00,,,0.00,,2013-01-22 13:33:00,
2013-01-22 07:43:00,37.0,27.0,30.37,NE,53,0.0,0.0,67,0.00,,,0.00,,2013-01-22 13:43:00,
2013-01-22 07:53:00,38.0,28.0,30.37,ENE,78,0.0,0.0,68,0.00,,,0.00,,2013-01-22 13:53:00,
2013-01-22 08:03:00,39.0,29.0,30.38,East,91,0.0,2.0,67,0.00,,,0.00,,2013-01-22 14:03:00,
2013-01-22 08:12:00,39.0,29.0,30.38,East,91,0.0,2.0,67,0.00,,,0.00,,2013-01-22 14:12:00,
2013-01-22 08:23:00,39.0,30.0,30.37,ENE,76,0.0,2.0,69,0.00,,,0.00,,2013-01-22 14:23:00,
2013-01-22 08:34:00,39.0,30.0,30.36,East,89,1.0,4.0,69,0.00,,,0.00,,2013-01-22 14:34:00,
2013-01-22 08:43:00,39.0,30.0,30.36,East,89,1.0,4.0,69,0.00,,,0.00,,2013-01-22 14:43:00,
2013-01-22 08:53:00,40.0,31.0,30.36,East,81,1.0,3.0,69,0.00,,,0.00,,2013-01-22 14:53:00,
2013-01-22 09:03:00,41.0,32.0,30.36,ENE,78,0.0,3.0,70,0.00,,,0.00,,2013-01-22 15:03:00,
2013-01-22 09:12:00,41.0,32.0,30.36,ENE,78,0.0,3.0,70,0.00,,,0.00,,2013-01-22 15:12:00,
2013-01-22 09:23:00,42.0,33.0,30.36,ENE,62,1.0,4.0,69,0.00,,,0.00,,2013-01-22 15:23:00,
2013-01-22 09:34:00,43.0,34.0,30.37,East,91,0.0,3.0,69,0.00,,,0.00,,2013-01-22 15:34:00,
2013-01-22 09:43:00,43.0,34.0,30.37,East,91,0.0,3.0,69,0.00,,,0.00,,2013-01-22 15:43:00,
2013-01-22 09:52:00,44.0,34.0,30.37,NE,44,1.0,4.0,68,0.00,,,0.00,,2013-01-22 15:52:00,
2013-01-22 10:03:00,46.0,36.0,30.37,SE,129,1.0,4.0,67,0.00,,,0.00,,2013-01-22 16:03:00,
2013-01-22 10:13:00,46.0,36.0,30.37,SE,129,1.0,4.0,67,0.00,,,0.00,,2013-01-22 16:13:00,
2013-01-22 10:23:00,47.0,37.0,30.37,ESE,105,0.0,4.0,67,0.00,,,0.00,,2013-01-22 16:23:00,
2013-01-22 10:33:00,47.0,36.0,30.37,SSE,156,1.0,5.0,66,0.00,,,0.00,,2013-01-22 16:33:00,
2013-01-22 10:43:00,47.0,36.0,30.37,SSE,156,1.0,5.0,66,0.00,,,0.00,,2013-01-22 16:43:00,
2013-01-22 10:53:00,49.0,37.0,30.37,ENE,71,1.0,3.0,64,0.00,,,0.00,,2013-01-22 16:53:00,
2013-01-22 11:03:00,50.0,38.0,30.36,South,175,0.0,4.0,64,0.00,,,0.00,,2013-01-22 17:03:00,
2013-01-22 11:12:00,50.0,38.0,30.36,South,175,0.0,4.0,64,0.00,,,0.00,,2013-01-22 17:12:00,
2013-01-22 11:23:00,52.0,40.0,30.36,West,260,1.0,5.0,64,0.00,,,0.00,,2013-01-22 17:23:00,
2013-01-22 11:34:00,53.0,40.0,30.36,SSW,194,1.0,4.0,62,0.00,,,0.00,,2013-01-22 17:34:00,
2013-01-22 11:43:00,53.0,40.0,30.36,SSW,194,1.0,4.0,62,0.00,,,0.00,,2013-01-22 17:43:00,
2013-01-22 11:53:00,54.0,41.0,30.35,SW,221,2.0,6.0,61,0.00,,,0.00,,2013-01-22 17:53:00,
2013-01-22 12:03:00,55.0,41.0,30.34,SW,217,3.0,6.0,60,0.00,,,0.00,,2013-01-22 18:03:00,
2013-01-22 12:12:00,55.0,41.0,30.34,SW,217,3.0,6.0,60,0.00,,,0.00,,2013-01-22 18:12:00,
2013-01-22 12:23:00,56.0,42.0,30.33,SE,131,2.0,8.0,60,0.00,,,0.00,,2013-01-22 18:23:00,
2013-01-22 12:33:00,57.0,43.0,30.32,SW,223,1.0,3.0,60,0.00,,,0.00,,2013-01-22 18:33:00,
2013-01-22 12:43:00,57.0,43.0,30.32,SW,223,1.0,3.0,60,0.00,,,0.00,,2013-01-22 18:43:00,
2013-01-22 12:53:00,58.0,44.0,30.32,ENE,75,1.0,4.0,59,0.00,,,0.00,,2013-01-22 18:53:00,
2013-01-22 13:03:00,58.0,44.0,30.32,West,263,2.0,4.0,59,0.00,,,0.00,,2013-01-22 19:03:00,
2013-01-22 13:13:00,58.0,44.0,30.32,West,263,2.0,4.0,59,0.00,,,0.00,,2013-01-22 19:13:00,
2013-01-22 13:23:00,58.0,44.0,30.31,East,89,0.0,4.0,60,0.00,,,0.00,,2013-01-22 19:23:00,
2013-01-22 13:33:00,59.0,45.0,30.30,South,187,2.0,6.0,60,0.00,,,0.00,,2013-01-22 19:33:00,
2013-01-22 13:43:00,59.0,45.0,30.30,South,187,2.0,6.0,60,0.00,,,0.00,,2013-01-22 19:43:00,
2013-01-22 13:53:00,59.0,45.0,30.29,South,187,0.0,5.0,60,0.00,,,0.00,,2013-01-22 19:53:00,
2013-01-22 14:03:00,60.0,45.0,30.28,SW,224,0.0,4.0,58,0.00,,,0.00,,2013-01-22 20:03:00,
2013-01-22 14:12:00,60.0,45.0,30.28,SW,224,0.0,4.0,58,0.00,,,0.00,,2013-01-22 20:12:00,
2013-01-22 14:23:00,60.0,45.0,30.27,SSW,195,1.0,4.0,58,0.00,,,0.00,,2013-01-22 20:23:00,
2013-01-22 14:33:00,61.0,46.0,30.27,South,183,3.0,6.0,57,0.00,,,0.00,,2013-01-22 20:33:00,
2013-01-22 14:42:00,61.0,46.0,30.27,South,183,3.0,6.0,57,0.00,,,0.00,,2013-01-22 20:42:00,
2013-01-22 14:53:00,61.0,46.0,30.27,South,191,1.0,4.0,58,0.00,,,0.00,,2013-01-22 20:53:00,
2013-01-22 15:03:00,61.0,46.0,30.26,East,84,1.0,5.0,58,0.00,,,0.00,,2013-01-22 21:03:00,
2013-01-22 15:13:00,61.0,46.0,30.26,East,84,1.0,5.0,58,0.00,,,0.00,,2013-01-22 21:13:00,
2013-01-22 15:22:00,61.0,46.0,30.26,South,172,0.0,3.0,58,0.00,,,0.00,,2013-01-22 21:22:00,
2013-01-22 15:33:00,61.0,46.0,30.24,SSE,167,1.0,4.0,58,0.00,,,0.00,,2013-01-22 21:33:00,
2013-01-22 15:43:00,61.0,46.0,30.24,SSE,167,1.0,4.0,58,0.00,,,0.00,,2013-01-22 21:43:00,
2013-01-22 15:52:00,62.0,46.0,30.24,SSE,165,0.0,7.0,56,0.00,,,0.00,,2013-01-22 21:52:00,
2013-01-22 16:03:00,63.0,47.0,30.24,SE,141,2.0,7.0,55,0.00,,,0.00,,2013-01-22 22:03:00,
2013-01-22 16:12:00,63.0,47.0,30.24,SE,141,2.0,7.0,55,0.00,,,0.00,,2013-01-22 22:12:00,
2013-01-22 16:22:00,64.0,47.0,30.24,NNE,12,1.0,3.0,55,0.00,,,0.00,,2013-01-22 22:22:00,
2013-01-22 16:32:00,64.0,47.0,30.24,NNE,12,1.0,3.0,55,0.00,,,0.00,,2013-01-22 22:32:00,
2013-01-22 16:43:00,63.0,47.0,30.24,SSW,212,1.0,4.0,56,0.00,,,0.00,,2013-01-22 22:43:00,
2013-01-22 16:53:00,64.0,48.0,30.24,SE,131,0.0,2.0,56,0.00,,,0.00,,2013-01-22 22:53:00,
2013-01-22 17:03:00,64.0,48.0,30.24,ENE,65,1.0,6.0,56,0.00,,,0.00,,2013-01-22 23:03:00,
2013-01-22 17:12:00,64.0,48.0,30.24,ENE,65,1.0,6.0,56,0.00,,,0.00,,2013-01-22 23:12:00,
2013-01-22 17:23:00,64.0,48.0,30.23,WSW,250,1.0,5.0,56,0.00,,,0.00,,2013-01-22 23:23:00,
2013-01-22 17:33:00,63.0,48.0,30.23,East,89,0.0,4.0,58,0.00,,,0.00,,2013-01-22 23:33:00,
2013-01-22 17:43:00,63.0,48.0,30.23,East,89,0.0,4.0,58,0.00,,,0.00,,2013-01-22 23:43:00,
2013-01-22 17:52:00,62.0,48.0,30.23,ENE,76,0.0,2.0,60,0.00,,,0.00,,2013-01-22 23:52:00,
2013-01-22 18:03:00,60.0,47.0,30.24,SE,127,0.0,0.0,62,0.00,,,0.00,,2013-01-23 00:03:00,
2013-01-22 18:12:00,60.0,47.0,30.24,SE,127,0.0,0.0,62,0.00,,,0.00,,2013-01-23 00:12:00,
2013-01-22 18:22:00,59.0,47.0,30.24,ESE,105,0.0,0.0,65,0.00,,,0.00,,2013-01-23 00:22:00,
2013-01-22 18:33:00,58.0,47.0,30.24,East,87,0.0,0.0,67,0.00,,,0.00,,2013-01-23 00:33:00,
2013-01-22 18:42:00,58.0,47.0,30.24,East,87,0.0,0.0,67,0.00,,,0.00,,2013-01-23 00:42:00,
2013-01-22 18:52:00,58.0,47.0,30.24,East,87,0.0,0.0,67,0.00,,,0.00,,2013-01-23 00:52:00,
2013-01-22 19:03:00,55.0,46.0,30.25,East,89,0.0,0.0,72,0.00,,,0.00,,2013-01-23 01:03:00,
2013-01-22 19:13:00,55.0,46.0,30.25,East,89,0.0,0.0,72,0.00,,,0.00,,2013-01-23 01:13:00,
2013-01-22 19:23:00,54.0,46.0,30.24,East,89,0.0,0.0,74,0.00,,,0.00,,2013-01-23 01:23:00,
2013-01-22 19:33:00,52.0,45.0,30.25,East,89,0.0,0.0,78,0.00,,,0.00,,2013-01-23 01:33:00,
2013-01-22 19:43:00,52.0,45.0,30.25,East,89,0.0,0.0,78,0.00,,,0.00,,2013-01-23 01:43:00,
2013-01-22 19:52:00,52.0,46.0,30.25,East,89,0.0,0.0,81,0.00,,,0.00,,2013-01-23 01:52:00,
2013-01-22 20:03:00,53.0,47.0,30.26,East,89,0.0,0.0,80,0.00,,,0.00,,2013-01-23 02:03:00,
2013-01-22 20:12:00,53.0,47.0,30.26,East,89,0.0,0.0,80,0.00,,,0.00,,2013-01-23 02:12:00,
2013-01-22 20:23:00,53.0,47.0,30.26,East,89,0.0,0.0,79,0.00,,,0.00,,2013-01-23 02:23:00,
2013-01-22 20:33:00,53.0,47.0,30.26,ENE,68,0.0,0.0,80,0.00,,,0.00,,2013-01-23 02:33:00,
2013-01-22 20:42:00,53.0,47.0,30.26,ENE,68,0.0,0.0,80,0.00,,,0.00,,2013-01-23 02:42:00,
2013-01-22 20:53:00,53.0,47.0,30.27,ENE,68,0.0,0.0,79,0.00,,,0.00,,2013-01-23 02:53:00,
2013-01-22 21:03:00,53.0,47.0,30.26,ENE,77,0.0,0.0,79,0.00,,,0.00,,2013-01-23 03:03:00,
2013-01-22 21:12:00,53.0,47.0,30.26,ENE,77,0.0,0.0,79,0.00,,,0.00,,2013-01-23 03:12:00,
2013-01-22 21:23:00,52.0,46.0,30.26,ENE,78,0.0,0.0,81,0.00,,,0.00,,2013-01-23 03:23:00,
2013-01-22 21:33:00,52.0,46.0,30.26,ENE,77,0.0,0.0,81,0.00,,,0.00,,2013-01-23 03:33:00,
2013-01-22 21:42:00,52.0,46.0,30.26,ENE,77,0.0,0.0,81,0.00,,,0.00,,2013-01-23 03:42:00,
2013-01-22 21:53:00,51.0,46.0,30.26,ENE,77,0.0,0.0,82,0.00,,,0.00,,2013-01-23 03:53:00,
2013-01-22 22:03:00,51.0,46.0,30.26,East,89,0.0,0.0,83,0.00,,,0.00,,2013-01-23 04:03:00,
2013-01-22 22:12:00,51.0,46.0,30.26,East,89,0.0,0.0,83,0.00,,,0.00,,2013-01-23 04:12:00,
2013-01-22 22:22:00,51.0,46.0,30.26,East,89,0.0,0.0,84,0.00,,,0.00,,2013-01-23 04:22:00,
2013-01-22 22:32:00,50.0,46.0,30.26,East,89,0.0,0.0,85,0.00,,,0.00,,2013-01-23 04:32:00,
2013-01-22 22:43:00,50.0,46.0,30.26,East,89,0.0,0.0,85,0.00,,,0.00,,2013-01-23 04:43:00,
2013-01-22 22:52:00,50.0,46.0,30.26,East,89,0.0,0.0,85,0.00,,,0.00,,2013-01-23 04:52:00,
2013-01-22 23:03:00,50.0,46.0,30.26,East,89,0.0,0.0,85,0.00,,,0.00,,2013-01-23 05:03:00,
2013-01-22 23:12:00,50.0,46.0,30.26,East,89,0.0,0.0,85,0.00,,,0.00,,2013-01-23 05:12:00,
2013-01-22 23:22:00,49.0,45.0,30.26,East,89,0.0,0.0,87,0.00,,,0.00,,2013-01-23 05:22:00,
2013-01-22 23:33:00,49.0,46.0,30.27,East,89,0.0,0.0,88,0.00,,,0.00,,2013-01-23 05:33:00,
2013-01-22 23:43:00,49.0,46.0,30.27,East,89,0.0,0.0,88,0.00,,,0.00,,2013-01-23 05:43:00,
2013-01-22 23:52:00,48.0,45.0,30.26,East,89,0.0,0.0,89,0.00,,,0.00,,2013-01-23 05:52:00,